Location: Medlow Airstrip Trail, Medlow Bath NSW 2780, Australia
(33.6682°S, 150.3233°E)
Time: 20:04:09
(UTC+10:00)

Explorer 7 - Visible Passes

Search period start: 16 September 2019 00:00
Search period end: 26 September 2019 00:00
Orbit: 485 x 680 km, 50.3° (Epoch: 16 September)

Date Brightness Start Highest point End Pass type
(mag) Time Alt. Az. Time Alt. Az. Time Alt. Az.
16 Sep 6.7 18:59:44 10° SW 19:03:32 75° NW 19:05:42 25° NE visible
17 Sep 7.9 19:04:57 10° WSW 19:08:30 38° NW 19:11:19 15° NNE visible
18 Sep 9.0 19:10:31 10° W 19:13:24 20° NW 19:16:20 10° N visible
19 Sep 9.7 19:17:18 10° WNW 19:18:15 11° NW 19:19:12 10° NW visible
